Regional Weather Roundup
Issued by NWS Charleston, WV

Home | Current Version | Previous Version | Graphics & Text | Print | Product List | Glossary On
Versions: 1 2 3 4 5 6 7 8 9 10 11 12 13 14 15 16 17 18 19 20 21 22 23 24 25 26 27 28 29 30 31 32 33 34 35 36 37 38 39 40 41 42 43 44 45 46 47 48 49 50
000
ASUS41 KRLX 031410
RWRRLX
West Virginia Regional Weather Roundup
National Weather Service Charleston WV
1000 AM EDT MON AUG 03 2015

Note: "fair" indicates few or no clouds below 12,000 feet with no
significant weather and/or obstructions to visibility.

WVZ003-031500-
Northern Panhandle of West Virginia

CITY           SKY/WX    TMP DP  RH WIND       PRES   REMARKS
WHEELING       CLOUDY    70  58  65 S10       29.84R
$$

WVZ009-031500-
Northwest West Virginia

CITY           SKY/WX    TMP DP  RH WIND       PRES   REMARKS
PARKERSBURG    CLOUDY    70  60  70 S13       29.85F
$$

WVZ006-031500-
Western West Virginia

CITY           SKY/WX    TMP DP  RH WIND       PRES   REMARKS
HUNTINGTON     CLOUDY    69  61  75 S8        29.91F
$$

WVZ015-031500-
West Central West Virginia

CITY           SKY/WX    TMP DP  RH WIND       PRES   REMARKS
CHARLESTON     CLOUDY    72  62  71 S5        29.98F
$$

WVZ022-031-031500-
North Central West Virginia

CITY           SKY/WX    TMP DP  RH WIND       PRES   REMARKS
CLARKSBURG     CLOUDY    71  62  73 S9        29.90F
MORGANTOWN     CLOUDY    73  59  61 S7        29.87F
$$

WVZ025-035-042-045-031500-
Southern West Virginia

CITY           SKY/WX    TMP DP  RH WIND       PRES   REMARKS
BECKLEY        MOSUNNY   71  58  63 NW10      30.05S
LOGAN            N/A     73  61  64 N8G14     29.99S
BLUEFIELD      MOSUNNY   74  58  57 W7        30.08R
LEWISBURG      SUNNY     71  60  66 CALM      30.03S
$$

WVZ047-031500-
Northern Mountains of West Virginia

CITY           SKY/WX    TMP DP  RH WIND       PRES   REMARKS
ELKINS         SUNNY     72  59  63 VRB3      29.99F
$$

WVZ052-031500-
Eastern Panhandle of West Virginia

CITY           SKY/WX    TMP DP  RH WIND       PRES   REMARKS
MARTINSBURG    SUNNY     78  60  53 VRB6      29.89S
PETERSBURG     MOSUNNY  N/A N/A N/A CALM      29.91F
$$



USA.gov is the U.S. government's official web portal to all federal, state and local government web resources and services.